{"data":{"norad_id":57640,"intl_designator":"2023-122J","name":"STARLINK-30324","alt_names":[],"object_type":"PAYLOAD","status":"ACTIVE","operator":null,"country":"US","launch_date":"2023-08-17","launch_site_code":"AFETR","launch_vehicle":null,"mission":null,"orbit_class":"UNKNOWN","rcs_meters":null,"size_class":null,"mass_kg":null,"dimensions":null,"purposes":["comms"],"wikipedia_slug":null,"has_3d_model":false,"image_url":null,"decayed_at":null,"tle_current":{"epoch":"2026-05-25T01:23:24.567936Z","epoch_age_seconds":76895,"freshness":"FRESH","line1":"1 57640U 23122J   26145.05792324  .00005236  00000+0  19977-3 0  9993","line2":"2 57640  43.0037  21.4579 0001174 256.1592 103.9130 15.27563335153873","mean_motion":15.27563335,"eccentricity":0.0001174,"inclination_deg":43.0037,"raan_deg":21.4579,"arg_perigee_deg":256.1592,"mean_anomaly_deg":103.913,"bstar":0.00019977,"rev_number":15387,"period_min":94.267777119696,"perigee_km":482.29348839241,"apogee_km":483.90450660462,"semimajor_km":6861.2359974985,"source":"CELESTRAK","updated_at":"2026-05-25T13:38:18.363815Z"}}}